Printer-friendly version

IAU Minor Planet Center

Minor Planet Center

MPEC 2005-V83 : 2005 VG7

The following Minor Planet Electronic Circular may be linked-to from your own Web pages, but must not otherwise be redistributed electronically.

A form allowing access to any MPEC is at the bottom of this page.


Read MPEC 2005-V82 Read MPEC 2005-V84


M.P.E.C. 2005-V83                                Issued 2005 Nov. 14, 04:20 UT

     The Minor Planet Electronic Circulars contain information on unusual
         minor planets and routine data on comets.  They are published
   on behalf of Commission 20 of the International Astronomical Union by the
          Minor Planet Center, Smithsonian Astrophysical Observatory,
                          Cambridge, MA 02138, U.S.A.

                  Supported in part by the Brinson Foundation
                  Supported in part by the TABASGO Foundation
             Prepared using the Tamkin Foundation Computer Network

                              MPC@CFA.HARVARD.EDU
          URL http://cfa-www.harvard.edu/iau/mpc.html  ISSN 1523-6714

                                   2005 VG7

Observations:
     K05V07G* C2005 11 13.27355 06 46 26.47 +50 21 41.3          18.3 V EV083703
     K05V07G  C2005 11 13.28058 06 46 11.10 +50 20 13.8          17.6 V EV083703
     K05V07G  C2005 11 13.28763 06 45 55.69 +50 18 44.6          17.8 V EV083703
     K05V07G  C2005 11 13.29470 06 45 40.28 +50 17 14.8          18.3 V EV083703
     K05V07G  C2005 11 13.41633 06 41 19.35 +49 51 12.9          18.5 V EV083703
     K05V07G  C2005 11 13.42237 06 41 06.79 +49 49 52.6          18.2 V EV083703
     K05V07G  C2005 11 13.42850 06 40 53.97 +49 48 31.5          18.2 V EV083703
     K05V07G  C2005 11 13.43475 06 40 40.98 +49 47 09.4          18.4 V EV083703
     K05V07G  C2005 11 13.97542 06 26 31.08 +47 55 50.9                 EV083595
     K05V07G  C2005 11 13.97889 06 26 25.85 +47 55 15.1                 EV083595
     K05V07G  C2005 11 14.00947 06 25 40.86 +47 49 57.3                 EV083595
     K05V07G  C2005 11 14.01294 06 25 35.85 +47 49 21.1          18.8 V EV083595
     K05V07G  C2005 11 14.02336 06 25 20.57 +47 47 32.4                 EV083595
     K05V07G  C2005 11 14.13014 06 22 53.84 +47 28 12.4                 EV083J95
     K05V07G  C2005 11 14.13178 06 22 51.58 +47 27 54.9                 EV083J95
     K05V07G  C2005 11 14.13358 06 22 49.13 +47 27 36.1          18.3 R EV083J95

Observer details:
595 Farra d'Isonzo.  Observer E. Pettarin.  0.40-m f/4.5 reflector + CCD.
703 Catalina Sky Survey.  Observer R. A. Kowalski.  Measurers E. C. Beshore,
    E. J. Christensen, G. J. Garradd, A. D. Grauer, R. E. Hill, R. A. Kowalski,
    S. M. Larson, R. H. McNaught.  0.68-m Schmidt + CCD.
J95 Great Shefford.  Observer P. Birtwhistle.  0.40-m f/6.0 Schmidt-Cassegrain
    + CCD.

Orbital elements:
2005 VG7
Epoch 2005 Aug. 18.0 TT = JDT 2453600.5                 MPC
M 341.21818              (2000.0)            P               Q
n   0.34880461     Peri.  327.53652     +0.99149474     -0.12599620
a   1.9987014      Node    39.74231     +0.12762506     +0.89219743
e   0.5489535      Incl.    2.92332     +0.02549560     +0.43371501
P   2.83           H   24.4           G   0.15           U   7
Residuals in seconds of arc
051113 703  0.2+  0.4-    051113 703  0.1-  0.4-    051114 595  0.0   0.7+
051113 703  0.0   0.6+    051113 703  0.1-  0.2+    051114 J95  0.1-  0.1+
051113 703  0.3-  0.3+    051113 595  0.4+  0.5-    051114 J95  0.2-  0.1-
051113 703  0.3-  0.4-    051113 595  0.7-  0.3-    051114 J95  0.1+  0.0
051113 703  0.4-  0.7+    051114 595  0.4-  0.2+
051113 703  0.3+  0.2-    051114 595  0.4+  0.3+

Ephemeris:
2005 VG7                 a,e,i = 2.00, 0.55, 3                   q = 0.9015
Date    TT    R. A. (2000) Decl.     Delta      r     Elong.  Phase     V
2005 11 09    14 54.64   +16 19.1    0.0117   0.981    33.1   146.5    22.5
2005 11 10    13 20.52   +42 21.6    0.00997  0.986    63.8   115.7    18.9
2005 11 11    10 19.54   +58 07.1    0.0119   0.991    95.3    84.1    17.7
2005 11 12    07 58.84   +56 10.6    0.0163   0.997   114.3    64.9    17.8
2005 11 13    06 56.34   +51 28.6    0.0217   1.002   125.0    54.0    18.1
2005 11 14    06 25.75   +47 51.9    0.0275   1.008   131.6    47.2    18.4
2005 11 15    06 08.14   +45 16.6    0.0335   1.014   136.2    42.4    18.7

2005 11 16    05 56.76   +43 22.8    0.0396   1.019   139.7    38.8    19.0
2005 11 21    05 31.52   +38 32.0    0.0710   1.050   150.5    27.6    20.0
2005 11 26    05 21.32   +36 24.7    0.103    1.083   157.6    20.3    20.7
2005 12 01    05 15.09   +35 06.2    0.137    1.118   163.2    14.8    21.2
2005 12 06    05 10.74   +34 08.0    0.172    1.154   167.5    10.7    21.6
2005 12 11    05 07.69   +33 20.2    0.210    1.192   169.6     8.6    22.0
2005 12 16    05 05.73   +32 39.0    0.250    1.230   168.8     9.0    22.4

Brian G. Marsden             (C) Copyright 2005 MPC           M.P.E.C. 2005-V83

Read MPEC 2005-V82 Read MPEC 2005-V84


MPEC number:

Enter an
MPEC number in one of the following forms:
  • 1997-B01 (the full form)
  • J97B01 (the packed version of the full form)
  • B01 (the abbreviated form)

Valid HTML 4.01!